Sardis Lake Weather Center

Moon Phase Calendar



Sardis Lake Water Level
Online Cameras

 


      

Current Conditions in University
4/18/2024 6:19:47 AM

67°F
Feels Like 68
Mist
Humidity
100%
Pressure
30.03"
Wind
6.9 mph (SE)
Dew Point
67°F
UV Index
0/10 (Low)
Visibility
4 mi

Hourly Forecast

Date & Time Thu, Apr 18
6:00 AM
Thu, Apr 18
7:00 AM
Thu, Apr 18
8:00 AM
Thu, Apr 18
9:00 AM
Thu, Apr 18
10:00 AM
Thu, Apr 18
11:00 AM
Thu, Apr 18
12:00 PM
Thu, Apr 18
1:00 PM
Thu, Apr 18
2:00 PM
Thu, Apr 18
3:00 PM
Thu, Apr 18
4:00 PM
Thu, Apr 18
5:00 PM
Thu, Apr 18
6:00 PM
Thu, Apr 18
7:00 PM
Thu, Apr 18
8:00 PM
Thu, Apr 18
9:00 PM
Thu, Apr 18
10:00 PM
Thu, Apr 18
11:00 PM
Fri, Apr 19
12:00 AM
Fri, Apr 19
1:00 AM
Fri, Apr 19
2:00 AM
Fri, Apr 19
3:00 AM
Fri, Apr 19
4:00 AM
Fri, Apr 19
5:00 AM
Fri, Apr 19
6:00 AM
Fri, Apr 19
7:00 AM
Fri, Apr 19
8:00 AM
Fri, Apr 19
9:00 AM
Fri, Apr 19
10:00 AM
Fri, Apr 19
11:00 AM
Fri, Apr 19
12:00 PM
Fri, Apr 19
1:00 PM
Fri, Apr 19
2:00 PM
Fri, Apr 19
3:00 PM
Fri, Apr 19
4:00 PM
Fri, Apr 19
5:00 PM
Fri, Apr 19
6:00 PM
Fri, Apr 19
7:00 PM
Fri, Apr 19
8:00 PM
Fri, Apr 19
9:00 PM
Fri, Apr 19
10:00 PM
Fri, Apr 19
11:00 PM
Sat, Apr 20
12:00 AM
Sat, Apr 20
1:00 AM
Sat, Apr 20
2:00 AM
Sat, Apr 20
3:00 AM
Sat, Apr 20
4:00 AM
Sat, Apr 20
5:00 AM
Condition
Clouds

Clouds

Clouds

Clouds

Clouds

Clouds

Rain

Clouds

Clouds

Clouds

Clouds

Rain

Rain

Clouds

Clouds

Clouds

Clouds

Rain

Rain

Rain

Rain

Rain

Rain

Rain

Rain

Clouds

Clouds

Clouds

Clouds

Clouds

Clouds

Clouds

Clouds

Clouds

Clouds

Clouds

Clouds

Clouds

Clouds

Clouds

Clouds

Clouds

Clouds

Clouds

Clouds

Clouds

Rain

Clouds
Temperature 67°F67°F68°F71°F76°F80°F80°F82°F83°F77°F75°F77°F73°F71°F69°F68°F66°F66°F65°F64°F64°F64°F65°F66°F62°F60°F58°F58°F61°F61°F61°F68°F68°F67°F67°F66°F65°F63°F63°F62°F62°F62°F61°F60°F59°F59°F58°F57°F
Feels Like 68°F68°F69°F72°F76°F83°F83°F85°F85°F78°F75°F78°F74°F72°F70°F68°F67°F66°F65°F65°F65°F64°F66°F67°F63°F61°F58°F58°F61°F60°F61°F67°F68°F67°F66°F66°F65°F63°F62°F62°F62°F61°F61°F59°F58°F58°F57°F55°F
Cloudiness 100%85%100%88%62%49%56%55%69%85%93%95%96%97%100%100%74%57%48%56%100%100%100%100%100%100%100%95%88%91%93%90%100%100%99%99%99%99%100%100%100%100%100%100%100%100%100%100%
Visibility 6 mi6 mi6 mi6 mi6 mi6 mi6 mi6 mi6 mi6 mi6 mi6 mi6 mi6 mi6 mi6 mi6 mi6 mi6 mi6 mi6 mi6 mi6 mi2 mi6 mi6 mi6 mi6 mi6 mi6 mi6 mi6 mi6 mi6 mi6 mi6 mi6 mi6 mi6 mi6 mi6 mi6 mi6 mi6 mi6 mi6 mi6 mi6 mi
Precipitation 0%0%0%0%0%0%20%0%5%3%1%49%81%62%9%0%0%37%54%74%100%100%100%100%100%80%0%0%0%0%0%0%0%0%0%0%0%0%0%0%0%0%0%0%0%0%20%0%
Humidity 100%99%97%89%76%64%65%58%55%70%71%72%84%83%89%88%88%88%92%95%97%99%98%98%96%96%95%91%83%80%77%66%66%68%69%70%74%76%78%80%81%81%75%73%73%73%72%77%
Dew Point 67°F67°F67°F68°F67°F67°F67°F66°F65°F67°F65°F67°F68°F65°F65°F63°F62°F62°F62°F63°F63°F63°F64°F65°F61°F59°F57°F56°F55°F54°F54°F56°F56°F56°F56°F56°F56°F55°F55°F56°F56°F55°F53°F51°F50°F50°F49°F49°F
Pressure 30.03"30.03"30.03"30.03"30"30"29.97"29.97"29.97"29.94"29.94"29.94"29.94"29.97"29.97"29.97"29.97"29.97"29.97"29.97"29.97"29.97"30"30"30.03"30.06"30.09"30.12"30.12"30.12"30.12"30.12"30.09"30.09"30.09"30.09"30.09"30.09"30.09"30.12"30.12"30.12"30.12"30.12"30.12"30.09"30.12"30.15"
Wind Speed 4.4 mph4.2 mph4.2 mph6.7 mph7.7 mph9 mph9.8 mph10.6 mph11.6 mph7.6 mph8.7 mph13.4 mph11.4 mph10.6 mph9.6 mph8 mph7.9 mph8.3 mph8.3 mph7.2 mph5.8 mph4.8 mph5.1 mph6.3 mph10.4 mph9.5 mph10.1 mph9.3 mph9.9 mph9.5 mph7.9 mph8 mph7.8 mph7.8 mph7.4 mph7.5 mph6.6 mph6.2 mph5.4 mph4.8 mph4.3 mph5.8 mph6.7 mph7.1 mph8.2 mph8.6 mph7.6 mph7.6 mph
Wind
Direction
162°
SSE
157°
SSE
126°
SE
167°
SSE
166°
SSE
172°
S
172°
S
199°
SSW
209°
SSW
213°
SSW
212°
SSW
208°
SSW
211°
SSW
208°
SSW
213°
SSW
211°
SSW
221°
SW
230°
SW
231°
SW
237°
WSW
239°
WSW
230°
SW
259°
W
315°
NW

N

N
15°
NNE
12°
NNE
18°
NNE
17°
NNE
27°
NNE
14°
NNE
17°
NNE
23°
NNE
19°
NNE
18°
NNE
20°
NNE
19°
NNE
28°
NNE
47°
NE
41°
NE
30°
NNE
32°
NNE
30°
NNE
29°
NNE
41°
NE
39°
NE
35°
NE

Daily Forecast

Date High Low Precip. Humidity
Today
Apr 18

Rain
83 °F
66 °F
81%
65%
Friday
Apr 19

Rain
68 °F
58 °F
100%
77%
Saturday
Apr 20

Rain
61 °F
54 °F
100%
59%
Sunday
Apr 21

Rain
54 °F
47 °F
100%
91%
Monday
Apr 22

Clear
68 °F
43 °F
0%
39%
Tuesday
Apr 23

Clear
75 °F
48 °F
0%
46%
Wednesday
Apr 24

Rain
73 °F
58 °F
100%
76%
Thursday
Apr 25

Rain
66 °F
54 °F
100%
83%
Friday
Apr 26

Rain
70 °F
60 °F
100%
73%
Saturday
Apr 27

Clouds
78 °F
55 °F
0%
56%
Sunday
Apr 28

Clear
80 °F
58 °F
0%
46%
Monday
Apr 29

Clouds
82 °F
63 °F
0%
48%
Tuesday
Apr 30

Clouds
80 °F
63 °F
0%
57%
Wednesday
May 1

Clouds
72 °F
64 °F
12%
73%
Thursday
May 2

Rain
82 °F
62 °F
20%
50%
Friday
May 3

Rain
83 °F
64 °F
97%
52%

Temperature 8-14 Day Outlook



Precipitation 8-14 Day Outlook






About Us
Contact Us
Site Map
Search Site
Advertise With Us
   
Sardis.USLakes.info
THE SARDIS LAKE WEBSITE

Copyright 2024, Lakes Online
Privacy    |    Legal